[TLELIST] Archives

 

[list_settings.list_name] Current TLEs

April 27th 2014 PST

HST 1 20580U 90037B 14116.80584931 .00002476 00000-0 15724-3 0 4946 2 20580 028.4716 014.8626 0003283 092.8799 320.2334 15.05257437116961 ISS (ZARYA) 1 25544U 98067A 14117.24901859 -.00020284 00000-0 -34273-3 0 1691 2 25544 051.6486 352.0318 0004344 334.7671 127.2832 15.50446903883427 CXO 1 25867U 99040B 14117.64364948 -.00000444 00000-0 00000+0 0 115 2 25867 076.7653 322.9331 8180726 274.8160 359.6876 00.37802510 11728 ____________________________________________________________________ These 2-Line ...Continue Reading

[list_settings.list_name] Current TLEs

April 26th 2014 PST

HST 1 20580U 90037B 14115.09672365 .00003126 00000-0 20167-3 0 4934 2 20580 028.4716 026.0942 0003257 075.5136 057.7186 15.05246769116717 ISS (ZARYA) 1 25544U 98067A 14116.28281373 .00017479 00000-0 30882-3 0 1621 2 25544 051.6489 356.8190 0003851 324.4235 141.1066 15.50431168883278 CXO 1 25867U 99040B 14117.64364948 -.00000444 00000-0 00000+0 0 115 2 25867 076.7653 322.9331 8180726 274.8160 359.6876 00.37802510 11728 ____________________________________________________________________ These 2-Line ...Continue Reading

[list_settings.list_name] Current TLEs

April 25th 2014 PST

HST 1 20580U 90037B 14115.09672365 .00003126 00000-0 20167-3 0 4934 2 20580 028.4716 026.0942 0003257 075.5136 057.7186 15.05246769116717 ISS (ZARYA) 1 25544U 98067A 14115.31643583 .00068078 00000-0 11723-2 0 1543 2 25544 051.6477 001.6106 0003700 326.3646 141.7948 15.50434608883128 CXO 1 25867U 99040B 14117.64364948 -.00000444 00000-0 00000+0 0 115 2 25867 076.7653 322.9331 8180726 274.8160 359.6876 00.37802510 11728 ____________________________________________________________________ These 2-Line ...Continue Reading

[list_settings.list_name] Current TLEs

April 24th 2014 PST

HST 1 20580U 90037B 14113.94504252 .00004670 00000-0 30717-3 0 4921 2 20580 028.4718 033.6770 0003033 067.4891 292.5970 15.05241103116539 ISS (ZARYA) 1 25544U 98067A 14114.22679887 .00049474 00000-0 85776-3 0 1435 2 25544 051.6492 007.0099 0004069 322.8587 179.6208 15.50377328882954 CXO 1 25867U 99040B 14114.99919722 -.00000272 00000-0 00000+0 0 104 2 25867 076.7672 323.0185 8187567 274.8618 359.7027 00.37804470 11711 ____________________________________________________________________ These 2-Line ...Continue Reading

[list_settings.list_name] Current TLEs

April 23rd 2014 PST

HST 1 20580U 90037B 14113.28200408 .00004931 00000-0 32509-3 0 4891 2 20580 028.4713 038.0355 0002744 062.8489 297.2384 15.05236416116433 ISS (ZARYA) 1 25544U 98067A 14113.19417330 .00041133 00000-0 71658-3 0 1363 2 25544 051.6503 012.1234 0003946 318.9694 176.4085 15.50324370882792 CXO 1 25867U 99040B 14114.99919722 -.00000272 00000-0 00000+0 0 104 2 25867 076.7672 323.0185 8187567 274.8618 359.7027 00.37804470 11711 ____________________________________________________________________ These 2-Line ...Continue Reading

[list_settings.list_name] Current TLEs

April 22nd 2014 PST

HST 1 20580U 90037B 14112.10962708 .00004602 00000-0 30269-3 0 4862 2 20580 028.4707 045.7262 0003349 047.2140 067.4238 15.05225092116265 ISS (ZARYA) 1 25544U 98067A 14112.52484954 .00040066 00000-0 69978-3 0 1316 2 25544 051.6497 015.4405 0003602 316.4402 040.9243 15.50265502882689 CXO 1 25867U 99040B 14114.99919722 -.00000272 00000-0 00000+0 0 104 2 25867 076.7672 323.0185 8187567 274.8618 359.7027 00.37804470 11711 ____________________________________________________________________ These 2-Line ...Continue Reading

[list_settings.list_name] Current TLEs

April 21st 2014 PST

HST 1 20580U 90037B 14110.32296487 .00005394 00000-0 35695-3 0 4854 2 20580 028.4706 057.4672 0003272 029.3155 104.6742 15.05206895115994 ISS (ZARYA) 1 25544U 98067A 14111.13372524 .00034403 00000-0 60521-3 0 1257 2 25544 051.6494 022.3343 0003671 307.3581 201.3192 15.50134274882471 CXO 1 25867U 99040B 14112.35314641 -.00000029 00000-0 00000+0 0 88 2 25867 076.7587 323.1445 8194754 274.8752 359.5833 00.37804748 11701 ____________________________________________________________________ These 2-Line ...Continue Reading

[list_settings.list_name] Current TLEs

April 20th 2014 PST

HST 1 20580U 90037B 14109.12308177 .00004857 00000-0 32036-3 0 4848 2 20580 028.4706 065.3515 0003228 017.5033 081.8041 15.05196879115801 ISS (ZARYA) 1 25544U 98067A 14110.35164619 .00029685 00000-0 52498-3 0 1209 2 25544 051.6498 026.2088 0003491 307.0643 154.3798 15.50060836882358 CXO 1 25867U 99040B 14112.35314641 -.00000029 00000-0 00000+0 0 88 2 25867 076.7587 323.1445 8194754 274.8752 359.5833 00.37804748 11701 ____________________________________________________________________ These 2-Line ...Continue Reading

[list_settings.list_name] Current TLEs

April 19th 2014 PST

HST 1 20580U 90037B 14109.12308177 .00004857 00000-0 32036-3 0 4848 2 20580 028.4706 065.3515 0003228 017.5033 081.8041 15.05196879115801 ISS (ZARYA) 1 25544U 98067A 14109.38487390 .00032473 00000-0 57451-3 0 1139 2 25544 051.6495 030.9996 0003472 301.0964 162.0595 15.50002970882204 CXO 1 25867U 99040B 14107.11552898 .00000000 00000-0 10000-3 0 76 2 25867 076.7365 323.3997 8196537 274.9051 006.7362 00.37809508 11687 ____________________________________________________________________ These 2-Line ...Continue Reading

[list_settings.list_name] Current TLEs

April 18th 2014 PST

HST 1 20580U 90037B 14107.98727721 .00003754 00000-0 24494-3 0 4833 2 20580 028.4705 072.8128 0003234 005.3931 047.1871 15.05188762115631 ISS (ZARYA) 1 25544U 98067A 14108.41797605 .00024790 00000-0 44202-3 0 1060 2 25544 051.6494 035.7871 0003457 298.6891 165.7076 15.49930630882059 CXO 1 25867U 99040B 14107.11552898 .00000000 00000-0 10000-3 0 76 2 25867 076.7365 323.3997 8196537 274.9051 006.7362 00.37809508 11687 ____________________________________________________________________ These 2-Line ...Continue Reading
  • This mailing list is a public mailing list - anyone may join or leave, at any time.
  • This mailing list is announce-only.

International Space Station (ISS) / Hubble Space Telescope (HST) / Chandra X-Ray Observatory Orbital Data via EMAIL

Privacy Policy:

Private list